This is the latest recevied weather packets stored in our database for station/object DG0PX-12. If no packets are shown the sender has not sent any weather packets the latest 10 day(s).
| Time | Temp. | Humidity | Pressure | Rain* | Wind** | Luminosity | Snow |
|---|---|---|---|---|---|---|---|
| 1777571065 | 11.67° C | 23% | 957.7 hPa | - | - | - | - |
| 1777570165 | 12.22° C | 23% | 957.6 hPa | - | - | - | - |
| 1777569265 | 11.67° C | 23% | 957.6 hPa | - | - | - | - |
| 1777568365 | 12.22° C | 23% | 957.5 hPa | - | - | - | - |
| 1777567465 | 12.22° C | 21% | 957.8 hPa | - | - | - | - |
| 1777566565 | 12.22° C | 21% | 957.7 hPa | - | - | - | - |
| 1777565664 | 15° C | 19% | 958 hPa | - | - | - | - |
| 1777564764 | 16.67° C | 17% | 958 hPa | - | - | - | - |
| 1777563864 | 17.78° C | 16% | 957.9 hPa | - | - | - | - |
| 1777562964 | 17.78° C | 17% | 957.9 hPa | - | - | - | - |
| 1777562064 | 16.67° C | 17% | 957.9 hPa | - | - | - | - |
| 1777561164 | 16.67° C | 17% | 957.9 hPa | - | - | - | - |
| 1777560263 | 19.44° C | 15% | 958.1 hPa | - | - | - | - |
| 1777559363 | 17.22° C | 17% | 957.9 hPa | - | - | - | - |
| 1777558463 | 15° C | 17% | 958 hPa | - | - | - | - |
| 1777557563 | 17.78° C | 16% | 957.9 hPa | - | - | - | - |
| 1777556663 | 16.11° C | 16% | 958.2 hPa | - | - | - | - |
| 1777555763 | 15.56° C | 17% | 958.2 hPa | - | - | - | - |
| 1777554862 | 17.22° C | 17% | 958.3 hPa | - | - | - | - |
| 1777553962 | 16.67° C | 17% | 958.3 hPa | - | - | - | - |
| 1777553062 | 15° C | 19% | 958.2 hPa | - | - | - | - |
| 1777552162 | 17.78° C | 17% | 958.4 hPa | - | - | - | - |
| 1777551262 | 16.67° C | 18% | 958.4 hPa | - | - | - | - |
| 1777550362 | 16.67° C | 18% | 958.5 hPa | - | - | - | - |
| 1777549461 | 16.11° C | 18% | 958.5 hPa | - | - | - | - |
* Rain since midnight (hover to see other rain measurements)
** Current wind speed in m/s (hover to see current wind gust speed)